Location: Proctor
(47.8934°N, 114.3048°W)
Time: 10:29:20
(UTC+00:00)

Transit 4A - Pass Details

Date: 29 June 2024
Orbit: 870 x 973 km, 66.8° (Epoch: 13 July)

Event Time Altitude Azimuth Distance (km) Brightness Sun altitude
Rises 09:34:19 0° 318° (NW) 3,474 11.2 -14.5°
Reaches altitude 10° 09:38:22 10° 345° (NNW) 2,547 10.9 -14.2°
Maximum altitude 09:41:04 13° 13° (NNE) 2,335 11.2 -14.0°
Drops below altitude 10° 09:43:47 10° 40° (NE) 2,570 11.6 -13.7°
Sets 09:47:54 0° 67° (ENE) 3,532 11.8 -13.4°
